Regional Weather Roundup
Issued by NWS Albany, NY

Home | Current Version | Previous Version | Text Only | Print | Product List | Glossary On
Versions: 1 2 3 4 5 6 7 8 9 10 11 12 13 14 15 16 17 18 19 20 21 22 23 24 25 26 27 28 29 30 31 32 33 34 35 36 37 38 39 40 41 42 43 44 45 46 47 48 49 50
000
ASUS41 KALY 051410
RWRALY

NEW YORK STATE HOURLY WEATHER ROUNDUP
NATIONAL WEATHER SERVICE ALBANY NY
1000 AM EDT TUE MAY 05 2015

NOTE: "FAIR" INDICATES FEW OR NO CLOUDS BELOW 12,000 FEET WITH NO
SIGNIFICANT WEATHER AND/OR NO OBSTRUCTIONS TO VISIBILITY.

NYZ032-033-038>043-046>054-057>066-NYZ062>081-051500-
EAST


CITY           SKY/WX    TMP DP  RH WIND       PRES   REMARKS
ALBANY         PTSUNNY   70  53  54 N7        30.23S
GLENS FALLS    MOSUNNY   65  48  54 NE9       30.24R
POUGHKEEPSIE   CLOUDY    72  53  51 N12       30.22R
NEWBURGH       PTSUNNY   72  57  60 VRB6      30.23F
MONTGOMERY     MOSUNNY   71  55  56 SE3       30.21F
WHITE PLAINS   PTSUNNY   72  52  49 VRB5      30.21R
ISLIP          PTSUNNY   75  50  41 VRB3      30.18F
NEW YORK CITY  PTSUNNY   68  51  54 NW9       30.20R
CENTRAL PARK   CLOUDY    73  51  46 VRB3      30.23S
$$

NYZ005>009-017-018-044>046-055-056-051500-
CENTRAL


CITY           SKY/WX    TMP DP  RH WIND       PRES   REMARKS
FULTON         MOSUNNY   63  50  62 NE5       30.29S
SYRACUSE       CLOUDY    63  53  70 CALM      30.28S
ROME           SUNNY     63  51  65 VRB5      30.29R
ELMIRA         MOSUNNY   66  55  67 VRB3      30.28S
BINGHAMTON     MOSUNNY   62  50  64 CALM      30.28S
MONTICELLO     PTSUNNY   70  45  40 NE6       30.27R
$$

NYZ026>034-041>043-051500-
NORTH


CITY           SKY/WX    TMP DP  RH WIND       PRES   REMARKS
WATERTOWN      MOSUNNY   59  48  67 E8        30.30S
FORT DRUM      NOT AVBL
MASSENA        MOSUNNY   59  44  57 CALM      30.31S
SARANAC LAKE   MOSUNNY   55  39  54 N3        30.27S
PLATTSBURGH    PTSUNNY   58  46  64 E8        30.27S
$$

NYZ001>004-010>016-019>021-051500-
WEST


CITY           SKY/WX    TMP DP  RH WIND       PRES   REMARKS
NIAGARA FALLS  CLOUDY    60  47  61 E5        30.28S
BUFFALO        PTSUNNY   59  52  77 SE5       30.28S HAZE
DUNKIRK        MOSUNNY   60  54  80 NE3       30.27F
JAMESTOWN      PTSUNNY   63  52  67 E3        30.30S
WELLSVILLE     MOSUNNY   65  44  46 NW5       30.31R
ROCHESTER      CLOUDY    61  51  70 SE7       30.29F
PENN YAN       PTSUNNY   61  52  72 E3        30.29F
$$

             KEY
       WCI = WIND CHILL INDEX
       VSB = VISIBILITY
       HX  = HEAT INDEX
$$



USA.gov is the U.S. government's official web portal to all federal, state and local government web resources and services.